Location: Riverside Cemetery
(38.3047°N, 99.7773°W)
Time: 03:01:10
(UTC+00:00)

Timation 1 Rocket - Pass Details

Date: 19 September 2020
Orbit: 897 x 910 km, 70.0° (Epoch: 22 October)

Event Time Altitude Azimuth Distance (km) Brightness Sun altitude
Rises 10:15:49 0° 336° (NNW) 3,537 7.4 -25.4°
Reaches altitude 10° 10:18:19 10° 337° (NNW) 2,595 6.7 -24.9°
Maximum altitude 10:24:21 87° 66° (ENE) 915 4.3 -23.8°
Drops below altitude 10° 10:30:21 10° 156° (SSE) 2,585 6.7 -22.7°
Sets 10:32:50 0° 157° (SSE) 3,524 7.5 -22.3°
